Time,TemperatureF,DewpointF,PressureIn,WindDirection,WindDirectionDegrees,WindSpeedMPH,WindSpeedGustMPH,Humidity,HourlyPrecipIn,Conditions,Clouds,dailyrainin,SoftwareType,DateUTC
2013-08-30 00:01:00,68.8,64.1,30.00,SW,225,0.0,0.0,85,0.00,,,0.00,WUHU216HW,2013-08-30 04:01:00,
2013-08-30 00:02:00,68.8,64.1,30.00,SW,225,0.0,0.0,85,0.00,,,0.00,WUHU216HW,2013-08-30 04:02:00,
2013-08-30 00:07:00,68.8,64.1,30.00,SW,225,0.0,0.0,85,0.00,,,0.00,WUHU216HW,2013-08-30 04:07:00,
2013-08-30 00:12:00,68.6,63.9,30.00,SW,225,0.0,0.0,85,0.00,,,0.00,WUHU216HW,2013-08-30 04:12:00,
2013-08-30 00:17:00,68.6,63.9,30.00,SW,225,0.0,0.0,85,0.00,,,0.00,WUHU216HW,2013-08-30 04:17:00,
2013-08-30 00:24:00,68.8,64.4,30.00,SW,225,0.0,0.0,86,0.00,,,0.00,WUHU216HW,2013-08-30 04:24:00,
2013-08-30 00:29:00,68.6,64.2,30.00,SW,225,0.0,0.0,86,0.00,,,0.00,WUHU216HW,2013-08-30 04:29:00,
2013-08-30 00:35:00,68.2,63.9,30.00,SW,225,0.0,0.0,86,0.00,,,0.00,WUHU216HW,2013-08-30 04:35:00,
2013-08-30 00:40:00,68.2,63.9,30.00,SW,225,0.0,0.0,86,0.00,,,0.00,WUHU216HW,2013-08-30 04:40:00,
2013-08-30 00:45:00,68.2,63.9,30.00,SW,225,0.0,0.0,86,0.00,,,0.00,WUHU216HW,2013-08-30 04:45:00,
2013-08-30 00:50:00,68.0,63.7,30.00,SW,225,0.7,0.7,86,0.00,,,0.00,WUHU216HW,2013-08-30 04:50:00,
2013-08-30 00:55:00,68.0,63.7,30.00,SW,225,0.0,0.9,86,0.00,,,0.00,WUHU216HW,2013-08-30 04:55:00,
2013-08-30 01:00:00,67.9,63.6,30.00,SW,225,0.0,1.1,86,0.00,,,0.00,WUHU216HW,2013-08-30 05:00:00,
2013-08-30 01:05:00,67.7,63.4,30.00,SW,225,0.0,1.1,86,0.00,,,0.00,WUHU216HW,2013-08-30 05:05:00,
2013-08-30 01:10:00,67.7,63.4,29.99,SW,225,0.0,0.9,86,0.00,,,0.00,WUHU216HW,2013-08-30 05:10:00,
2013-08-30 01:15:00,67.7,63.4,29.99,SSW,203,1.8,1.8,86,0.00,,,0.00,WUHU216HW,2013-08-30 05:15:00,
2013-08-30 01:20:00,67.7,63.4,29.99,SSW,203,0.0,1.8,86,0.00,,,0.00,WUHU216HW,2013-08-30 05:20:00,
2013-08-30 01:25:00,67.7,63.4,29.99,SW,225,0.0,1.8,86,0.00,,,0.00,WUHU216HW,2013-08-30 05:25:00,
2013-08-30 01:30:00,67.7,63.4,29.99,SW,225,0.0,0.7,86,0.00,,,0.00,WUHU216HW,2013-08-30 05:30:00,
2013-08-30 01:35:00,67.7,63.4,29.99,SW,225,0.0,1.1,86,0.00,,,0.00,WUHU216HW,2013-08-30 05:35:00,
2013-08-30 01:40:00,67.7,63.6,29.99,SW,225,1.1,1.1,87,0.00,,,0.00,WUHU216HW,2013-08-30 05:40:00,
2013-08-30 01:45:00,67.7,63.6,30.00,SSW,203,1.6,1.6,87,0.00,,,0.00,WUHU216HW,2013-08-30 05:45:00,
2013-08-30 01:50:00,67.7,63.6,30.00,WSW,248,1.3,3.4,87,0.00,,,0.00,WUHU216HW,2013-08-30 05:50:00,
2013-08-30 01:55:00,67.7,63.6,29.99,WSW,248,2.5,4.0,87,0.00,,,0.00,WUHU216HW,2013-08-30 05:55:00,
2013-08-30 02:00:00,67.5,63.5,30.00,SW,225,0.2,4.0,87,0.00,,,0.00,WUHU216HW,2013-08-30 06:00:00,
2013-08-30 02:05:00,67.3,63.6,30.00,SSW,203,0.9,3.4,88,0.00,,,0.00,WUHU216HW,2013-08-30 06:05:00,
2013-08-30 02:10:00,67.1,63.5,29.99,WSW,248,0.0,2.5,88,0.00,,,0.00,WUHU216HW,2013-08-30 06:10:00,
2013-08-30 02:15:00,67.1,63.5,29.99,West,270,0.0,0.7,88,0.00,,,0.00,WUHU216HW,2013-08-30 06:15:00,
2013-08-30 02:20:00,67.0,63.3,29.99,West,270,0.0,0.4,88,0.00,,,0.00,WUHU216HW,2013-08-30 06:20:00,
2013-08-30 02:25:00,67.0,63.3,29.98,WSW,248,0.0,0.4,88,0.00,,,0.00,WUHU216HW,2013-08-30 06:25:00,
2013-08-30 02:30:00,67.0,63.3,29.99,WSW,248,0.0,0.4,88,0.00,,,0.00,WUHU216HW,2013-08-30 06:30:00,
2013-08-30 02:35:00,67.0,63.3,29.99,SW,225,0.2,1.6,88,0.00,,,0.00,WUHU216HW,2013-08-30 06:35:00,
2013-08-30 02:40:00,67.0,63.3,29.99,WSW,248,0.0,1.6,88,0.00,,,0.00,WUHU216HW,2013-08-30 06:40:00,
2013-08-30 02:45:00,67.0,63.3,29.99,West,270,0.0,0.2,88,0.00,,,0.00,WUHU216HW,2013-08-30 06:45:00,
2013-08-30 02:50:00,67.0,63.3,29.98,SW,225,0.0,0.2,88,0.00,,,0.00,WUHU216HW,2013-08-30 06:50:00,
2013-08-30 02:55:00,67.0,63.3,29.99,SSW,203,0.4,1.1,88,0.00,,,0.00,WUHU216HW,2013-08-30 06:55:00,
2013-08-30 03:00:00,67.0,63.3,29.98,WSW,248,0.0,1.1,88,0.00,,,0.00,WUHU216HW,2013-08-30 07:00:00,
2013-08-30 03:05:00,67.0,63.3,29.98,WNW,293,0.4,0.9,88,0.00,,,0.00,WUHU216HW,2013-08-30 07:05:00,
2013-08-30 03:10:00,67.0,63.3,29.98,SW,225,0.9,0.9,88,0.00,,,0.00,WUHU216HW,2013-08-30 07:10:00,
2013-08-30 03:15:00,66.8,63.1,29.99,South,180,1.6,1.6,88,0.00,,,0.00,WUHU216HW,2013-08-30 07:15:00,
2013-08-30 03:20:00,66.8,63.1,29.99,SW,225,1.8,1.8,88,0.00,,,0.00,WUHU216HW,2013-08-30 07:20:00,
2013-08-30 03:25:00,66.8,63.1,30.00,SW,225,0.9,1.8,88,0.00,,,0.00,WUHU216HW,2013-08-30 07:25:00,
2013-08-30 03:31:00,66.8,63.1,30.00,WSW,248,1.1,3.1,88,0.00,,,0.00,WUHU216HW,2013-08-30 07:31:00,
2013-08-30 03:36:00,66.8,63.1,30.00,SW,225,3.1,3.1,88,0.00,,,0.00,WUHU216HW,2013-08-30 07:36:00,
2013-08-30 03:41:00,66.8,63.1,29.99,SSW,203,2.0,3.1,88,0.00,,,0.00,WUHU216HW,2013-08-30 07:41:00,
2013-08-30 03:46:00,66.6,62.9,29.99,SSW,203,1.1,3.1,88,0.00,,,0.00,WUHU216HW,2013-08-30 07:46:00,
2013-08-30 03:51:00,66.6,62.9,30.00,SW,225,2.9,2.9,88,0.00,,,0.00,WUHU216HW,2013-08-30 07:51:00,
2013-08-30 03:56:00,66.4,62.7,29.99,WSW,248,0.0,2.9,88,0.00,,,0.00,WUHU216HW,2013-08-30 07:56:00,
2013-08-30 04:01:00,66.2,62.6,30.00,WSW,248,1.1,1.1,88,0.00,,,0.00,WUHU216HW,2013-08-30 08:01:00,
2013-08-30 04:06:00,66.2,62.6,30.00,WSW,248,0.2,1.1,88,0.00,,,0.00,WUHU216HW,2013-08-30 08:06:00,
2013-08-30 04:11:00,66.2,62.6,29.99,SW,225,2.2,2.2,88,0.00,,,0.00,WUHU216HW,2013-08-30 08:11:00,
2013-08-30 04:16:00,66.1,62.4,29.99,SE,135,0.0,2.2,88,0.00,,,0.00,WUHU216HW,2013-08-30 08:16:00,
2013-08-30 04:21:00,65.9,62.2,29.99,SSW,203,2.5,2.5,88,0.00,,,0.00,WUHU216HW,2013-08-30 08:21:00,
2013-08-30 04:26:00,65.9,62.2,29.99,SSE,158,0.0,2.5,88,0.00,,,0.00,WUHU216HW,2013-08-30 08:26:00,
2013-08-30 04:31:00,65.9,62.2,30.00,SSW,203,0.2,1.8,88,0.00,,,0.00,WUHU216HW,2013-08-30 08:31:00,
2013-08-30 04:36:00,65.9,62.2,29.99,WSW,248,1.1,1.8,88,0.00,,,0.00,WUHU216HW,2013-08-30 08:36:00,
2013-08-30 04:41:00,65.9,62.2,29.99,South,180,1.3,2.9,88,0.00,,,0.00,WUHU216HW,2013-08-30 08:41:00,
2013-08-30 04:46:00,65.9,62.2,29.99,SSW,203,2.9,3.8,88,0.00,,,0.00,WUHU216HW,2013-08-30 08:46:00,
2013-08-30 04:51:00,65.7,62.0,29.99,SSW,203,2.0,3.8,88,0.00,,,0.00,WUHU216HW,2013-08-30 08:51:00,
2013-08-30 04:56:00,65.5,62.2,29.99,West,270,0.4,2.5,89,0.00,,,0.00,WUHU216HW,2013-08-30 08:56:00,
2013-08-30 05:01:00,65.3,61.8,29.99,SW,225,0.2,2.5,88,0.00,,,0.00,WUHU216HW,2013-08-30 09:01:00,
2013-08-30 05:06:00,65.3,61.8,29.99,SW,225,0.0,1.3,88,0.00,,,0.00,WUHU216HW,2013-08-30 09:06:00,
2013-08-30 05:11:00,65.3,61.8,29.99,SW,225,0.2,1.3,88,0.00,,,0.00,WUHU216HW,2013-08-30 09:11:00,
2013-08-30 05:16:00,65.2,61.8,29.98,SW,225,1.8,1.8,89,0.00,,,0.00,WUHU216HW,2013-08-30 09:16:00,
2013-08-30 05:21:00,65.2,61.2,29.98,WSW,248,0.0,1.8,87,0.00,,,0.00,WUHU216HW,2013-08-30 09:21:00,
2013-08-30 05:26:00,65.0,61.4,29.98,SW,225,0.0,0.4,88,0.00,,,0.00,WUHU216HW,2013-08-30 09:26:00,
2013-08-30 05:31:00,65.0,61.0,29.98,SW,225,0.0,0.4,87,0.00,,,0.00,WUHU216HW,2013-08-30 09:31:00,
2013-08-30 05:36:00,65.0,61.4,29.99,SW,225,0.0,0.0,88,0.00,,,0.00,WUHU216HW,2013-08-30 09:36:00,
2013-08-30 05:41:00,64.8,60.8,29.99,SW,225,1.1,1.1,87,0.00,,,0.00,WUHU216HW,2013-08-30 09:41:00,
2013-08-30 05:46:00,64.8,61.2,29.99,South,180,0.4,1.1,88,0.00,,,0.00,WUHU216HW,2013-08-30 09:46:00,
2013-08-30 05:51:00,64.8,61.2,29.99,South,180,0.0,0.7,88,0.00,,,0.00,WUHU216HW,2013-08-30 09:51:00,
2013-08-30 05:56:00,64.8,61.2,29.99,SSE,158,0.7,0.7,88,0.00,,,0.00,WUHU216HW,2013-08-30 09:56:00,
2013-08-30 06:01:00,64.8,61.2,29.99,WSW,248,1.6,1.6,88,0.00,,,0.00,WUHU216HW,2013-08-30 10:01:00,
2013-08-30 06:06:00,64.8,61.2,29.99,SW,225,1.3,1.6,88,0.00,,,0.00,WUHU216HW,2013-08-30 10:06:00,
2013-08-30 06:11:00,64.6,61.0,29.99,SW,225,0.4,1.6,88,0.00,,,0.00,WUHU216HW,2013-08-30 10:11:00,
2013-08-30 06:16:00,64.4,60.8,29.98,SW,225,0.4,1.6,88,0.00,,,0.00,WUHU216HW,2013-08-30 10:16:00,
2013-08-30 06:21:00,64.4,60.8,29.99,SW,225,1.3,2.2,88,0.00,,,0.00,WUHU216HW,2013-08-30 10:21:00,
2013-08-30 06:26:00,64.4,60.8,29.99,SW,225,0.0,2.2,88,0.00,,,0.00,WUHU216HW,2013-08-30 10:26:00,
2013-08-30 06:31:00,64.4,60.8,29.99,WNW,293,0.0,1.8,88,0.00,,,0.00,WUHU216HW,2013-08-30 10:31:00,
2013-08-30 06:36:00,64.4,60.8,30.00,WSW,248,1.8,1.8,88,0.00,,,0.00,WUHU216HW,2013-08-30 10:36:00,
2013-08-30 06:41:00,64.4,60.8,30.00,SW,225,0.9,1.8,88,0.00,,,0.00,WUHU216HW,2013-08-30 10:41:00,
2013-08-30 06:46:00,64.4,60.8,30.00,SW,225,0.0,2.5,88,0.00,,,0.00,WUHU216HW,2013-08-30 10:46:00,
2013-08-30 06:51:00,64.6,61.0,30.00,WSW,248,0.4,2.5,88,0.00,,,0.00,WUHU216HW,2013-08-30 10:51:00,
2013-08-30 06:56:00,64.8,61.2,30.00,WSW,248,0.7,1.8,88,0.00,,,0.00,WUHU216HW,2013-08-30 10:56:00,
2013-08-30 07:01:00,65.0,61.8,30.00,SSW,203,2.7,3.8,89,0.00,,,0.00,WUHU216HW,2013-08-30 11:01:00,
2013-08-30 07:06:00,65.2,61.8,30.00,SW,225,2.5,3.8,89,0.00,,,0.00,WUHU216HW,2013-08-30 11:06:00,
2013-08-30 07:11:00,65.2,61.8,30.00,WSW,248,2.7,2.7,89,0.00,,,0.00,WUHU216HW,2013-08-30 11:11:00,
2013-08-30 07:16:00,65.3,62.0,30.00,SW,225,1.1,3.4,89,0.00,,,0.00,WUHU216HW,2013-08-30 11:16:00,
2013-08-30 07:21:00,65.3,62.0,30.00,SSW,203,1.8,3.4,89,0.00,,,0.00,WUHU216HW,2013-08-30 11:21:00,
2013-08-30 07:28:00,65.5,62.2,30.00,SW,225,0.0,2.2,89,0.00,,,0.00,WUHU216HW,2013-08-30 11:28:00,
2013-08-30 07:33:00,65.5,62.2,30.00,SW,225,2.2,2.2,89,0.00,,,0.00,WUHU216HW,2013-08-30 11:33:00,
2013-08-30 07:38:00,65.5,62.2,30.00,WSW,248,3.4,3.4,89,0.00,,,0.00,WUHU216HW,2013-08-30 11:38:00,
2013-08-30 07:43:00,65.7,62.4,30.00,SW,225,0.4,3.4,89,0.00,,,0.00,WUHU216HW,2013-08-30 11:43:00,
2013-08-30 07:48:00,65.7,62.7,30.00,WSW,248,1.1,3.1,90,0.00,,,0.00,WUHU216HW,2013-08-30 11:48:00,
2013-08-30 07:53:00,65.9,62.8,30.00,SW,225,0.2,3.1,90,0.00,,,0.00,WUHU216HW,2013-08-30 11:53:00,
2013-08-30 07:59:00,66.1,63.0,30.00,NNW,338,2.0,2.2,90,0.00,,,0.00,WUHU216HW,2013-08-30 11:59:00,
2013-08-30 08:04:00,66.2,63.2,30.00,WSW,248,1.8,2.2,90,0.00,,,0.00,WUHU216HW,2013-08-30 12:04:00,
2013-08-30 08:09:00,66.4,63.4,30.00,West,270,3.4,3.6,90,0.00,,,0.00,WUHU216HW,2013-08-30 12:09:00,
2013-08-30 08:14:00,66.6,63.5,30.00,West,270,3.4,3.6,90,0.00,,,0.00,WUHU216HW,2013-08-30 12:14:00,
2013-08-30 08:19:00,67.0,64.2,30.00,SSW,203,1.1,5.4,91,0.00,,,0.00,WUHU216HW,2013-08-30 12:19:00,
2013-08-30 08:24:00,67.1,64.1,30.00,WSW,248,6.3,6.3,90,0.00,,,0.00,WUHU216HW,2013-08-30 12:24:00,
2013-08-30 08:29:00,67.5,64.7,30.00,South,180,5.6,6.3,91,0.00,,,0.00,WUHU216HW,2013-08-30 12:29:00,
2013-08-30 08:34:00,67.9,65.1,30.00,SSE,158,4.3,5.6,91,0.00,,,0.00,WUHU216HW,2013-08-30 12:34:00,
2013-08-30 08:39:00,68.4,65.3,30.00,SSW,203,4.0,4.3,90,0.00,,,0.00,WUHU216HW,2013-08-30 12:39:00,
2013-08-30 08:44:00,69.1,66.1,30.00,SSW,203,1.8,4.9,90,0.00,,,0.00,WUHU216HW,2013-08-30 12:44:00,
2013-08-30 08:49:00,69.7,66.6,30.01,SW,225,4.3,6.3,90,0.00,,,0.00,WUHU216HW,2013-08-30 12:49:00,
2013-08-30 08:54:00,70.4,67.0,30.01,SW,225,4.7,7.2,89,0.00,,,0.00,WUHU216HW,2013-08-30 12:54:00,
2013-08-30 08:59:00,70.9,67.1,30.01,West,270,0.7,7.2,88,0.00,,,0.00,WUHU216HW,2013-08-30 12:59:00,
2013-08-30 09:04:00,71.5,67.4,30.01,SSW,203,5.8,7.6,87,0.00,,,0.00,WUHU216HW,2013-08-30 13:04:00,
2013-08-30 09:09:00,71.8,67.4,30.01,SSW,203,4.3,7.6,86,0.00,,,0.00,WUHU216HW,2013-08-30 13:09:00,
2013-08-30 09:14:00,72.5,68.1,30.01,SSW,203,5.4,6.3,86,0.00,,,0.00,WUHU216HW,2013-08-30 13:14:00,
2013-08-30 09:19:00,73.1,68.7,30.01,SW,225,1.1,6.3,86,0.00,,,0.00,WUHU216HW,2013-08-30 13:19:00,
2013-08-30 09:24:00,73.4,68.3,30.01,WSW,248,0.4,3.1,84,0.00,,,0.00,WUHU216HW,2013-08-30 13:24:00,
2013-08-30 09:29:00,73.8,68.7,30.01,SSE,158,1.1,5.8,84,0.00,,,0.00,WUHU216HW,2013-08-30 13:29:00,
2013-08-30 09:34:00,74.2,69.4,30.01,South,180,6.5,6.9,85,0.00,,,0.00,WUHU216HW,2013-08-30 13:34:00,
2013-08-30 09:39:00,74.9,69.4,30.01,SSW,203,3.8,6.9,83,0.00,,,0.00,WUHU216HW,2013-08-30 13:39:00,
2013-08-30 09:44:00,75.4,69.3,30.01,SSW,203,0.4,4.9,81,0.00,,,0.00,WUHU216HW,2013-08-30 13:44:00,
2013-08-30 09:49:00,75.6,69.4,30.01,South,180,6.9,6.9,81,0.00,,,0.00,WUHU216HW,2013-08-30 13:49:00,
2013-08-30 09:54:00,76.3,69.8,30.01,WNW,293,0.4,7.4,80,0.00,,,0.00,WUHU216HW,2013-08-30 13:54:00,
2013-08-30 09:59:00,76.7,70.0,30.00,SSW,203,5.4,7.4,80,0.00,,,0.00,WUHU216HW,2013-08-30 13:59:00,
2013-08-30 10:04:00,77.0,70.0,30.00,SSW,203,1.1,5.8,79,0.00,,,0.00,WUHU216HW,2013-08-30 14:04:00,
2013-08-30 10:09:00,77.4,69.6,30.01,NNW,338,1.6,4.0,77,0.00,,,0.00,WUHU216HW,2013-08-30 14:09:00,
2013-08-30 10:15:00,77.4,70.0,30.01,SSW,203,3.1,3.4,78,0.00,,,0.00,WUHU216HW,2013-08-30 14:15:00,
2013-08-30 10:20:00,77.8,69.6,30.00,NW,315,1.6,4.0,76,0.00,,,0.00,WUHU216HW,2013-08-30 14:20:00,
2013-08-30 10:26:00,78.3,70.1,30.00,NW,315,0.9,4.9,76,0.00,,,0.00,WUHU216HW,2013-08-30 14:26:00,
2013-08-30 10:31:00,78.5,69.8,30.00,South,180,1.1,5.4,75,0.00,,,0.00,WUHU216HW,2013-08-30 14:31:00,
2013-08-30 10:36:00,78.8,70.2,30.00,SW,225,2.5,5.4,75,0.00,,,0.00,WUHU216HW,2013-08-30 14:36:00,
2013-08-30 10:41:00,79.2,70.2,30.00,SSW,203,2.5,4.7,74,0.00,,,0.00,WUHU216HW,2013-08-30 14:41:00,
2013-08-30 10:46:00,79.6,70.6,30.00,South,180,1.8,4.7,74,0.00,,,0.00,WUHU216HW,2013-08-30 14:46:00,
2013-08-30 10:51:00,80.1,70.7,30.00,SSW,203,4.7,6.3,73,0.00,,,0.00,WUHU216HW,2013-08-30 14:51:00,
2013-08-30 10:56:00,80.3,70.5,30.00,SSW,203,2.0,6.3,72,0.00,,,0.00,WUHU216HW,2013-08-30 14:56:00,
2013-08-30 11:01:00,80.8,71.0,30.00,West,270,2.5,6.3,72,0.00,,,0.00,WUHU216HW,2013-08-30 15:01:00,
2013-08-30 11:06:00,81.5,70.8,30.00,SW,225,3.4,6.3,70,0.00,,,0.00,WUHU216HW,2013-08-30 15:06:00,
2013-08-30 11:11:00,82.1,71.3,29.99,SW,225,6.3,6.3,70,0.00,,,0.00,WUHU216HW,2013-08-30 15:11:00,
2013-08-30 11:16:00,82.3,71.5,29.99,SE,135,4.5,7.8,70,0.00,,,0.00,WUHU216HW,2013-08-30 15:16:00,
2013-08-30 11:21:00,82.1,71.3,29.99,SSW,203,3.6,7.8,70,0.00,,,0.00,WUHU216HW,2013-08-30 15:21:00,
2013-08-30 11:26:00,82.4,71.6,29.99,NW,315,1.8,3.6,70,0.00,,,0.00,WUHU216HW,2013-08-30 15:26:00,
2013-08-30 11:31:00,82.4,70.7,29.99,North,0,0.4,3.4,68,0.00,,,0.00,WUHU216HW,2013-08-30 15:31:00,
2013-08-30 11:36:00,82.3,70.6,29.99,WNW,293,2.7,2.7,68,0.00,,,0.00,WUHU216HW,2013-08-30 15:36:00,
2013-08-30 11:41:00,82.4,70.7,29.99,SSW,203,1.3,2.7,68,0.00,,,0.00,WUHU216HW,2013-08-30 15:41:00,
2013-08-30 11:46:00,82.6,71.4,29.99,SSW,203,4.9,4.9,69,0.00,,,0.00,WUHU216HW,2013-08-30 15:46:00,
2013-08-30 11:51:00,83.0,70.8,29.99,West,270,0.9,4.9,67,0.00,,,0.00,WUHU216HW,2013-08-30 15:51:00,
2013-08-30 11:56:00,83.3,71.6,29.98,SSW,203,1.6,3.8,68,0.00,,,0.00,WUHU216HW,2013-08-30 15:56:00,
2013-08-30 12:01:00,83.7,71.1,29.98,NE,45,1.1,3.8,66,0.00,,,0.00,WUHU216HW,2013-08-30 16:01:00,
2013-08-30 12:06:00,84.2,72.1,29.98,SW,225,4.9,4.9,67,0.00,,,0.00,WUHU216HW,2013-08-30 16:06:00,
2013-08-30 12:11:00,85.1,71.6,29.98,WSW,248,3.4,4.9,64,0.00,,,0.00,WUHU216HW,2013-08-30 16:11:00,
2013-08-30 12:16:00,85.5,71.9,29.98,NNW,338,0.4,4.7,64,0.00,,,0.00,WUHU216HW,2013-08-30 16:16:00,
2013-08-30 12:21:00,85.5,70.6,29.98,North,0,1.8,4.7,61,0.00,,,0.00,WUHU216HW,2013-08-30 16:21:00,
2013-08-30 12:26:00,85.0,70.9,29.98,WSW,248,2.9,5.4,63,0.00,,,0.00,WUHU216HW,2013-08-30 16:26:00,
2013-08-30 12:31:00,85.0,71.5,29.97,SW,225,5.4,5.4,64,0.00,,,0.00,WUHU216HW,2013-08-30 16:31:00,
2013-08-30 12:36:00,85.7,70.8,29.97,NW,315,2.5,5.4,61,0.00,,,0.00,WUHU216HW,2013-08-30 16:36:00,
2013-08-30 12:41:00,85.9,71.4,29.97,SSW,203,5.4,5.4,62,0.00,,,0.00,WUHU216HW,2013-08-30 16:41:00,
2013-08-30 12:46:00,86.2,72.2,29.96,SW,225,5.8,8.5,63,0.00,,,0.00,WUHU216HW,2013-08-30 16:46:00,
2013-08-30 12:53:00,86.8,71.7,29.96,SW,225,6.9,8.5,61,0.00,,,0.00,WUHU216HW,2013-08-30 16:53:00,
2013-08-30 12:58:00,87.5,72.5,29.96,WSW,248,1.6,9.4,61,0.00,,,0.00,WUHU216HW,2013-08-30 16:58:00,
2013-08-30 13:03:00,87.7,72.2,29.96,WSW,248,2.5,9.4,60,0.00,,,0.00,WUHU216HW,2013-08-30 17:03:00,
2013-08-30 13:08:00,88.0,70.4,29.96,SW,225,1.8,7.4,56,0.00,,,0.00,WUHU216HW,2013-08-30 17:08:00,
2013-08-30 13:13:00,88.0,70.9,29.95,SW,225,3.8,7.4,57,0.00,,,0.00,WUHU216HW,2013-08-30 17:13:00,
2013-08-30 13:18:00,88.2,71.7,29.95,SW,225,7.6,7.6,58,0.00,,,0.00,WUHU216HW,2013-08-30 17:18:00,
2013-08-30 13:23:00,88.6,71.9,29.95,SSW,203,4.0,7.6,58,0.00,,,0.00,WUHU216HW,2013-08-30 17:23:00,
2013-08-30 13:28:00,88.7,72.1,29.95,SW,225,6.9,6.9,58,0.00,,,0.00,WUHU216HW,2013-08-30 17:28:00,
2013-08-30 13:33:00,88.9,71.7,29.94,WSW,248,2.2,6.9,57,0.00,,,0.00,WUHU216HW,2013-08-30 17:33:00,
2013-08-30 13:38:00,88.7,71.6,29.94,NW,315,1.1,5.4,57,0.00,,,0.00,WUHU216HW,2013-08-30 17:38:00,
2013-08-30 13:43:00,88.2,71.7,29.94,West,270,5.1,5.1,58,0.00,,,0.00,WUHU216HW,2013-08-30 17:43:00,
2013-08-30 13:48:00,88.0,71.5,29.94,SW,225,5.4,8.1,58,0.00,,,0.00,WUHU216HW,2013-08-30 17:48:00,
2013-08-30 13:53:00,88.0,69.3,29.94,SW,225,5.4,11.6,54,0.00,,,0.00,WUHU216HW,2013-08-30 17:53:00,
2013-08-30 14:00:00,87.8,69.1,29.94,SW,225,5.4,6.5,54,0.00,,,0.00,WUHU216HW,2013-08-30 18:00:00,
2013-08-30 14:05:00,87.7,67.3,29.93,WSW,248,9.8,9.8,51,0.00,,,0.00,WUHU216HW,2013-08-30 18:05:00,
2013-08-30 14:11:00,87.7,68.9,29.93,WSW,248,8.9,11.6,54,0.00,,,0.00,WUHU216HW,2013-08-30 18:11:00,
2013-08-30 14:16:00,87.5,67.7,29.93,SW,225,8.9,11.6,52,0.00,,,0.00,WUHU216HW,2013-08-30 18:16:00,
2013-08-30 14:21:00,87.5,67.7,29.93,South,180,2.7,10.5,52,0.00,,,0.00,WUHU216HW,2013-08-30 18:21:00,
2013-08-30 14:26:00,87.5,68.2,29.93,SSW,203,3.4,10.5,53,0.00,,,0.00,WUHU216HW,2013-08-30 18:26:00,
2013-08-30 14:33:00,87.5,68.2,29.93,SSW,203,6.5,11.0,53,0.00,,,0.00,WUHU216HW,2013-08-30 18:33:00,
2013-08-30 14:38:00,87.5,68.2,29.92,SW,225,3.6,11.0,53,0.00,,,0.00,WUHU216HW,2013-08-30 18:38:00,
2013-08-30 14:44:00,87.5,69.3,29.92,SSE,158,1.1,13.6,55,0.00,,,0.00,WUHU216HW,2013-08-30 18:44:00,
2013-08-30 14:49:00,87.7,69.5,29.92,SSE,158,6.3,13.6,55,0.00,,,0.00,WUHU216HW,2013-08-30 18:49:00,
2013-08-30 14:55:00,87.8,68.6,29.92,South,180,8.5,8.5,53,0.00,,,0.00,WUHU216HW,2013-08-30 18:55:00,
2013-08-30 15:00:00,87.7,68.4,29.92,WSW,248,2.5,11.9,53,0.00,,,0.00,WUHU216HW,2013-08-30 19:00:00,
2013-08-30 15:05:00,87.5,68.2,29.92,West,270,4.7,11.9,53,0.00,,,0.00,WUHU216HW,2013-08-30 19:05:00,
2013-08-30 15:10:00,87.5,68.8,29.92,South,180,3.8,8.7,54,0.00,,,0.00,WUHU216HW,2013-08-30 19:10:00,
2013-08-30 15:15:00,87.5,67.7,29.91,WSW,248,5.4,9.8,52,0.00,,,0.00,WUHU216HW,2013-08-30 19:15:00,
2013-08-30 15:20:00,87.1,68.0,29.91,WSW,248,5.4,9.8,53,0.00,,,0.00,WUHU216HW,2013-08-30 19:20:00,
2013-08-30 15:25:00,87.3,68.6,29.91,SSW,203,4.0,9.8,54,0.00,,,0.00,WUHU216HW,2013-08-30 19:25:00,
2013-08-30 15:30:00,87.3,69.1,29.91,SW,225,3.6,4.7,55,0.00,,,0.00,WUHU216HW,2013-08-30 19:30:00,
2013-08-30 15:36:00,87.5,68.2,29.91,SSE,158,2.5,8.9,53,0.00,,,0.00,WUHU216HW,2013-08-30 19:36:00,
2013-08-30 15:41:00,87.5,68.8,29.91,SSE,158,5.4,8.9,54,0.00,,,0.00,WUHU216HW,2013-08-30 19:41:00,
2013-08-30 15:46:00,87.5,68.2,29.91,SW,225,2.7,8.9,53,0.00,,,0.00,WUHU216HW,2013-08-30 19:46:00,
2013-08-30 15:51:00,87.5,69.3,29.91,SW,225,2.9,8.9,55,0.00,,,0.00,WUHU216HW,2013-08-30 19:51:00,
2013-08-30 15:57:00,87.3,68.0,29.90,SSE,158,1.8,4.7,53,0.00,,,0.00,WUHU216HW,2013-08-30 19:57:00,
2013-08-30 16:02:00,87.1,68.0,29.90,SSW,203,5.1,10.5,53,0.00,,,0.00,WUHU216HW,2013-08-30 20:02:00,
2013-08-30 16:07:00,87.1,68.4,29.90,South,180,4.7,10.5,54,0.00,,,0.00,WUHU216HW,2013-08-30 20:07:00,
2013-08-30 16:12:00,87.1,68.4,29.90,SSW,203,2.2,9.6,54,0.00,,,0.00,WUHU216HW,2013-08-30 20:12:00,
2013-08-30 16:17:00,86.9,68.3,29.90,West,270,4.7,6.9,54,0.00,,,0.00,WUHU216HW,2013-08-30 20:17:00,
2013-08-30 16:22:00,86.9,68.3,29.90,SSW,203,1.8,8.7,54,0.00,,,0.00,WUHU216HW,2013-08-30 20:22:00,
2013-08-30 16:27:00,86.9,69.3,29.90,South,180,3.4,8.7,56,0.00,,,0.00,WUHU216HW,2013-08-30 20:27:00,
2013-08-30 16:32:00,86.8,68.1,29.89,WSW,248,4.0,6.0,54,0.00,,,0.00,WUHU216HW,2013-08-30 20:32:00,
2013-08-30 16:37:00,86.8,68.7,29.89,SSW,203,3.1,4.7,55,0.00,,,0.00,WUHU216HW,2013-08-30 20:37:00,
2013-08-30 16:42:00,86.6,68.5,29.89,SW,225,10.1,10.1,55,0.00,,,0.00,WUHU216HW,2013-08-30 20:42:00,
2013-08-30 16:47:00,86.4,68.3,29.89,SSW,203,4.7,10.1,55,0.00,,,0.00,WUHU216HW,2013-08-30 20:47:00,
2013-08-30 16:52:00,86.4,68.9,29.89,SSE,158,4.3,5.1,56,0.00,,,0.00,WUHU216HW,2013-08-30 20:52:00,
2013-08-30 16:57:00,86.4,68.3,29.89,SW,225,2.7,4.3,55,0.00,,,0.00,WUHU216HW,2013-08-30 20:57:00,
2013-08-30 17:02:00,86.2,68.1,29.89,SW,225,2.2,4.0,55,0.00,,,0.00,WUHU216HW,2013-08-30 21:02:00,
2013-08-30 17:07:00,86.2,68.1,29.89,SSE,158,2.0,4.3,55,0.00,,,0.00,WUHU216HW,2013-08-30 21:07:00,
2013-08-30 17:12:00,86.0,68.0,29.89,SSW,203,2.0,4.3,55,0.00,,,0.00,WUHU216HW,2013-08-30 21:12:00,
2013-08-30 17:17:00,86.0,68.0,29.89,South,180,3.1,4.3,55,0.00,,,0.00,WUHU216HW,2013-08-30 21:17:00,
2013-08-30 17:22:00,85.9,67.8,29.88,SSE,158,0.9,6.0,55,0.00,,,0.00,WUHU216HW,2013-08-30 21:22:00,
2013-08-30 17:27:00,85.9,68.3,29.88,SW,225,4.3,6.3,56,0.00,,,0.00,WUHU216HW,2013-08-30 21:27:00,
2013-08-30 17:32:00,85.7,68.7,29.88,SSE,158,1.1,6.9,57,0.00,,,0.00,WUHU216HW,2013-08-30 21:32:00,
2013-08-30 17:37:00,85.7,69.8,29.88,South,180,2.5,6.9,59,0.00,,,0.00,WUHU216HW,2013-08-30 21:37:00,
2013-08-30 17:42:00,85.3,70.4,29.88,East,90,1.8,4.3,61,0.00,,,0.00,WUHU216HW,2013-08-30 21:42:00,
2013-08-30 17:47:00,85.1,71.1,29.88,SW,225,4.0,4.7,63,0.00,,,0.00,WUHU216HW,2013-08-30 21:47:00,
2013-08-30 17:52:00,85.0,70.9,29.88,SW,225,3.4,4.7,63,0.00,,,0.00,WUHU216HW,2013-08-30 21:52:00,
2013-08-30 17:57:00,84.8,70.8,29.88,SSW,203,2.0,4.7,63,0.00,,,0.00,WUHU216HW,2013-08-30 21:57:00,
2013-08-30 18:02:00,84.6,71.1,29.88,SSW,203,1.3,4.7,64,0.00,,,0.00,WUHU216HW,2013-08-30 22:02:00,
2013-08-30 18:07:00,84.2,71.2,29.88,SSE,158,2.2,4.0,65,0.00,,,0.00,WUHU216HW,2013-08-30 22:07:00,
2013-08-30 18:12:00,83.9,71.3,29.88,SSW,203,2.9,3.4,66,0.00,,,0.00,WUHU216HW,2013-08-30 22:12:00,
2013-08-30 18:17:00,83.9,71.3,29.87,SW,225,3.4,3.6,66,0.00,,,0.00,WUHU216HW,2013-08-30 22:17:00,
2013-08-30 18:22:00,83.7,71.1,29.87,SSW,203,0.4,3.6,66,0.00,,,0.00,WUHU216HW,2013-08-30 22:22:00,
2013-08-30 18:27:00,83.5,71.4,29.87,SE,135,3.6,3.6,67,0.00,,,0.00,WUHU216HW,2013-08-30 22:27:00,
2013-08-30 18:32:00,83.5,70.9,29.87,SE,135,0.0,4.3,66,0.00,,,0.00,WUHU216HW,2013-08-30 22:32:00,
2013-08-30 18:37:00,83.2,71.0,29.87,SSW,203,2.0,4.3,67,0.00,,,0.00,WUHU216HW,2013-08-30 22:37:00,
2013-08-30 18:42:00,83.0,70.8,29.87,South,180,1.6,2.5,67,0.00,,,0.00,WUHU216HW,2013-08-30 22:42:00,
2013-08-30 18:47:00,82.8,70.7,29.87,SSW,203,0.9,3.4,67,0.00,,,0.00,WUHU216HW,2013-08-30 22:47:00,
2013-08-30 18:52:00,82.4,70.7,29.87,South,180,1.1,3.4,68,0.00,,,0.00,WUHU216HW,2013-08-30 22:52:00,
2013-08-30 18:57:00,82.3,70.1,29.86,SSE,158,1.1,2.5,67,0.00,,,0.00,WUHU216HW,2013-08-30 22:57:00,
2013-08-30 19:02:00,82.1,70.4,29.86,West,270,1.1,2.5,68,0.00,,,0.00,WUHU216HW,2013-08-30 23:02:00,
2013-08-30 19:07:00,81.9,69.9,29.86,SSE,158,0.7,1.8,67,0.00,,,0.00,WUHU216HW,2013-08-30 23:07:00,
2013-08-30 19:12:00,81.5,69.9,29.86,SE,135,1.3,1.8,68,0.00,,,0.00,WUHU216HW,2013-08-30 23:12:00,
2013-08-30 19:17:00,81.4,70.2,29.86,SSE,158,2.5,2.5,69,0.00,,,0.00,WUHU216HW,2013-08-30 23:17:00,
2013-08-30 19:22:00,81.0,69.9,29.86,South,180,1.1,3.8,69,0.00,,,0.00,WUHU216HW,2013-08-30 23:22:00,
2013-08-30 19:27:00,80.8,69.8,29.86,SSE,158,0.4,3.8,69,0.00,,,0.00,WUHU216HW,2013-08-30 23:27:00,
2013-08-30 19:32:00,80.5,69.8,29.86,SSW,203,1.1,3.4,70,0.00,,,0.00,WUHU216HW,2013-08-30 23:32:00,
2013-08-30 19:37:00,80.3,69.7,29.86,WSW,248,2.0,3.4,70,0.00,,,0.00,WUHU216HW,2013-08-30 23:37:00,
2013-08-30 19:43:00,80.1,69.5,29.86,SSE,158,1.8,2.0,70,0.00,,,0.00,WUHU216HW,2013-08-30 23:43:00,
2013-08-30 19:48:00,79.7,69.1,29.86,SE,135,2.0,2.5,70,0.00,,,0.00,WUHU216HW,2013-08-30 23:48:00,
2013-08-30 19:53:00,79.4,69.1,29.86,West,270,1.1,2.5,71,0.00,,,0.00,WUHU216HW,2013-08-30 23:53:00,
2013-08-30 19:58:00,79.0,68.8,29.86,SW,225,1.1,2.7,71,0.00,,,0.00,WUHU216HW,2013-08-30 23:58:00,
2013-08-30 20:03:00,78.7,68.9,29.86,SW,225,0.9,3.4,72,0.00,,,0.00,WUHU216HW,2013-08-31 00:03:00,
2013-08-30 20:08:00,78.5,68.7,29.86,SW,225,1.8,3.4,72,0.00,,,0.00,WUHU216HW,2013-08-31 00:08:00,
2013-08-30 20:13:00,78.1,68.8,29.86,SW,225,1.3,2.5,73,0.00,,,0.00,WUHU216HW,2013-08-31 00:13:00,
2013-08-30 20:18:00,77.9,68.6,29.86,South,180,0.7,2.5,73,0.00,,,0.00,WUHU216HW,2013-08-31 00:18:00,
2013-08-30 20:25:00,77.9,68.6,29.86,SSE,158,1.3,1.8,73,0.00,,,0.00,WUHU216HW,2013-08-31 00:25:00,
2013-08-30 20:30:00,77.8,68.8,29.86,SSW,203,2.9,2.9,74,0.00,,,0.00,WUHU216HW,2013-08-31 00:30:00,
2013-08-30 20:35:00,77.6,68.6,29.86,WSW,248,2.0,2.9,74,0.00,,,0.00,WUHU216HW,2013-08-31 00:35:00,
2013-08-30 20:40:00,77.4,68.5,29.86,SW,225,0.7,2.5,74,0.00,,,0.00,WUHU216HW,2013-08-31 00:40:00,
2013-08-30 20:45:00,77.2,68.7,29.86,SW,225,1.1,2.5,75,0.00,,,0.00,WUHU216HW,2013-08-31 00:45:00,
2013-08-30 20:50:00,77.0,68.5,29.86,WSW,248,1.3,2.5,75,0.00,,,0.00,WUHU216HW,2013-08-31 00:50:00,
2013-08-30 20:55:00,76.7,68.1,29.86,WSW,248,2.0,3.1,75,0.00,,,0.00,WUHU216HW,2013-08-31 00:55:00,
2013-08-30 21:00:00,76.7,68.1,29.86,SW,225,4.7,4.7,75,0.00,,,0.00,WUHU216HW,2013-08-31 01:00:00,
2013-08-30 21:05:00,76.7,68.1,29.86,SW,225,0.9,4.7,75,0.00,,,0.00,WUHU216HW,2013-08-31 01:05:00,
2013-08-30 21:10:00,76.7,68.1,29.87,WSW,248,1.8,3.4,75,0.00,,,0.00,WUHU216HW,2013-08-31 01:10:00,
2013-08-30 21:15:00,76.7,68.5,29.87,SW,225,3.4,5.6,76,0.00,,,0.00,WUHU216HW,2013-08-31 01:15:00,
2013-08-30 21:20:00,76.5,68.0,29.87,SW,225,2.2,5.6,75,0.00,,,0.00,WUHU216HW,2013-08-31 01:20:00,
2013-08-30 21:25:00,76.3,68.2,29.87,WSW,248,2.5,3.8,76,0.00,,,0.00,WUHU216HW,2013-08-31 01:25:00,
2013-08-30 21:30:00,76.1,67.7,29.87,South,180,4.5,4.5,75,0.00,,,0.00,WUHU216HW,2013-08-31 01:30:00,
2013-08-30 21:35:00,76.0,67.9,29.87,SSW,203,2.7,4.5,76,0.00,,,0.00,WUHU216HW,2013-08-31 01:35:00,
2013-08-30 21:40:00,75.8,67.7,29.88,WSW,248,3.4,4.3,76,0.00,,,0.00,WUHU216HW,2013-08-31 01:40:00,
2013-08-30 21:45:00,75.6,68.0,29.88,SSW,203,3.4,4.3,77,0.00,,,0.00,WUHU216HW,2013-08-31 01:45:00,
2013-08-30 21:50:00,75.4,67.8,29.89,SSW,203,2.5,3.4,77,0.00,,,0.00,WUHU216HW,2013-08-31 01:50:00,
2013-08-30 21:55:00,75.2,67.6,29.88,SSW,203,1.8,2.9,77,0.00,,,0.00,WUHU216HW,2013-08-31 01:55:00,
2013-08-30 22:00:00,75.2,68.0,29.89,WSW,248,2.2,2.9,78,0.00,,,0.00,WUHU216HW,2013-08-31 02:00:00,
2013-08-30 22:05:00,75.1,67.8,29.88,SW,225,2.7,2.7,78,0.00,,,0.00,WUHU216HW,2013-08-31 02:05:00,
2013-08-30 22:10:00,74.9,67.6,29.89,SW,225,2.9,3.6,78,0.00,,,0.00,WUHU216HW,2013-08-31 02:10:00,
2013-08-30 22:15:00,74.5,67.2,29.89,SSW,203,2.5,3.6,78,0.00,,,0.00,WUHU216HW,2013-08-31 02:15:00,
2013-08-30 22:20:00,74.5,67.2,29.88,SW,225,0.9,2.7,78,0.00,,,0.00,WUHU216HW,2013-08-31 02:20:00,
2013-08-30 22:25:00,74.7,67.4,29.88,WSW,248,1.1,1.1,78,0.00,,,0.00,WUHU216HW,2013-08-31 02:25:00,
2013-08-30 22:30:00,74.5,67.7,29.89,WSW,248,2.0,2.7,79,0.00,,,0.00,WUHU216HW,2013-08-31 02:30:00,
2013-08-30 22:35:00,74.2,67.7,29.88,WSW,248,1.8,3.1,80,0.00,,,0.00,WUHU216HW,2013-08-31 02:35:00,
2013-08-30 22:40:00,74.0,67.5,29.89,SSW,203,1.1,3.1,80,0.00,,,0.00,WUHU216HW,2013-08-31 02:40:00,
2013-08-30 22:45:00,73.8,67.3,29.89,WSW,248,2.0,2.5,80,0.00,,,0.00,WUHU216HW,2013-08-31 02:45:00,
2013-08-30 22:50:00,73.8,67.7,29.89,SW,225,2.9,2.9,81,0.00,,,0.00,WUHU216HW,2013-08-31 02:50:00,
2013-08-30 22:55:00,73.6,67.5,29.89,SW,225,4.3,4.3,81,0.00,,,0.00,WUHU216HW,2013-08-31 02:55:00,
2013-08-30 23:00:00,73.4,67.3,29.89,WSW,248,4.0,4.3,81,0.00,,,0.00,WUHU216HW,2013-08-31 03:00:00,
2013-08-30 23:05:00,73.6,67.5,29.88,SSW,203,4.0,4.0,81,0.00,,,0.00,WUHU216HW,2013-08-31 03:05:00,
2013-08-30 23:10:00,73.8,67.7,29.89,WSW,248,4.0,5.1,81,0.00,,,0.00,WUHU216HW,2013-08-31 03:10:00,
2013-08-30 23:15:00,73.6,67.5,29.89,SSW,203,4.3,5.1,81,0.00,,,0.00,WUHU216HW,2013-08-31 03:15:00,
2013-08-30 23:20:00,73.4,67.3,29.88,SW,225,4.0,4.7,81,0.00,,,0.00,WUHU216HW,2013-08-31 03:20:00,
2013-08-30 23:25:00,73.4,67.3,29.88,SSW,203,4.7,5.1,81,0.00,,,0.00,WUHU216HW,2013-08-31 03:25:00,
2013-08-30 23:30:00,73.6,67.5,29.88,SSW,203,4.5,5.1,81,0.00,,,0.00,WUHU216HW,2013-08-31 03:30:00,
2013-08-30 23:35:00,73.4,67.3,29.88,SW,225,4.3,4.7,81,0.00,,,0.00,WUHU216HW,2013-08-31 03:35:00,
2013-08-30 23:40:00,73.3,67.2,29.88,SSW,203,2.2,4.7,81,0.00,,,0.00,WUHU216HW,2013-08-31 03:40:00,
2013-08-30 23:45:00,73.3,67.2,29.88,SSW,203,2.0,4.7,81,0.00,,,0.00,WUHU216HW,2013-08-31 03:45:00,
2013-08-30 23:50:00,73.4,67.3,29.88,SSW,203,2.0,4.7,81,0.00,,,0.00,WUHU216HW,2013-08-31 03:50:00,
2013-08-30 23:55:00,73.3,67.2,29.88,WSW,248,0.4,2.5,81,0.00,,,0.00,WUHU216HW,2013-08-31 03:55:00,